Weather History for Park Rapids, MN

Change the Weather History Date:

Monday, January 23, 2012

  Actual Average Record
Temperature  
Mean Temperature 14 °F -  
Max Temperature 21 °F 19 °F 43 °F (1981)
Min Temperature 8 °F -2 °F -34 °F (1996)
Degree Days  
Heating Degree Days 50    
Moisture  
Dew Point 15 °F    
Average Humidity 88    
Maximum Humidity 93    
Minimum Humidity 84    
Precipitation  
Precipitation 0.07 in - - ()
Sea Level Pressure  
Sea Level Pressure 29.69 in    
Wind  
Wind Speed 9 mph (NW)    
Max Wind Speed 17 mph    
Max Gust Speed 21 mph    
Visibility 6 miles    
Events Snow    
Averages and records for this station are not official NWS values.
T = Trace of Precipitation, MM = Missing Value Source: NWS Daily Summary

Daily Weather History Graph

Daily Weather History Graph

Search for Another Location

Airport:

Trip Planner

Search our weather history database for the weather conditions in past years. The results will help you decide how hot, cold, wet, or windy it might be!

Date:

Astronomy

Jan. 23, 2012 Rise Set
Actual Time 7:55 AM CST 5:09 PM CST
Civil Twilight 7:21 AM CST 5:42 PM CST
Nautical Twilight 6:44 AM CST 6:19 PM CST
Astronomical Twilight 6:08 AM CST 6:55 PM CST
Moon 7:47 AM CST (1/23) 6:03 PM CST (1/23)
Length of Visible Light 10h 20m
Length of Day
9h 13m
New Moon, 0% of the Moon is Illuminated
Jan 23
New Moon
Jan 30
First Quarter
Feb 7
Full
Feb 14
Last Quarter
Feb 21
New

Hourly Weather History & Observations

Time (CST) Temp. Windchill Dew Point Humidity Pressure Visibility Wind Dir Wind Speed Gust Speed Precip Events Conditions
12:27 AM 21.2 °F 14.9 °F 19.4 °F 93% 29.53 in 1.2 mi NNW 4.6 mph - 0.00 in Snow Light Snow
12:45 AM 21.2 °F 14.9 °F 19.4 °F 93% 29.53 in 0.8 mi NNW 4.6 mph - 0.02 in Snow Light Snow
12:53 AM 21.0 °F 13.4 °F 19.0 °F 92% 29.60 in 0.8 mi NNW 5.8 mph - 0.02 in Snow Light Snow
1:26 AM 21.2 °F 11.7 °F 19.4 °F 93% 29.52 in 1.0 mi NW 8.1 mph - 0.03 in Snow Light Snow
1:35 AM 21.2 °F 11.7 °F 17.6 °F 86% 29.52 in 1.5 mi NNW 8.1 mph - 0.03 in Snow Light Snow
1:53 AM 21.0 °F 12.4 °F 18.0 °F 88% 29.60 in 1.8 mi NNW 6.9 mph - 0.03 in Snow Light Snow
2:09 AM 21.2 °F 11.7 °F 17.6 °F 86% 29.53 in 2.5 mi NNW 8.1 mph - 0.00 in Snow Light Snow
2:13 AM 21.2 °F 13.6 °F 17.6 °F 86% 29.53 in 3.0 mi NNW 5.8 mph - 0.00 in Snow Light Snow
2:53 AM 21.0 °F 14.6 °F 18.0 °F 88% 29.63 in 7.0 mi NNW 4.6 mph - 0.00 in   Overcast
3:22 AM 21.2 °F 13.6 °F 17.6 °F 86% 29.57 in 2.0 mi NW 5.8 mph - N/A Snow Light Snow
3:32 AM 21.2 °F 13.6 °F 17.6 °F 86% 29.57 in 1.8 mi NW 5.8 mph - 0.01 in Snow Light Snow
3:53 AM 21.0 °F 13.4 °F 18.0 °F 88% 29.64 in 2.5 mi NW 5.8 mph - 0.01 in Snow Light Snow
4:00 AM 21.2 °F 12.6 °F 17.6 °F 86% 29.56 in 3.0 mi NW 6.9 mph - 0.00 in Snow Light Snow
4:08 AM 21.2 °F 10.1 °F 17.6 °F 86% 29.56 in 3.0 mi NW 10.4 mph - 0.00 in Snow Light Snow
4:20 AM 21.2 °F 8.9 °F 17.6 °F 86% 29.56 in 2.5 mi NNW 12.7 mph - 0.01 in Snow Light Snow
4:25 AM 21.2 °F 10.9 °F 19.4 °F 93% 29.55 in 3.0 mi NNW 9.2 mph - 0.01 in Snow Light Snow
4:34 AM 21.2 °F 9.5 °F 19.4 °F 93% 29.55 in 4.0 mi NNW 11.5 mph - 0.01 in Snow Light Snow
4:53 AM 21.9 °F 10.4 °F 19.0 °F 89% 29.62 in 6.0 mi NNW 11.5 mph - 0.01 in   Overcast
5:53 AM 21.2 °F 8.9 °F 19.4 °F 93% 29.56 in 7.0 mi NNW 12.7 mph - N/A   Overcast
6:53 AM 21.2 °F 9.5 °F 17.6 °F 86% 29.58 in 8.0 mi NNW 11.5 mph - N/A   Overcast
7:53 AM 21.0 °F 8.1 °F 18.0 °F 88% 29.67 in 5.0 mi NNW 13.8 mph 20.7 mph N/A   Overcast
8:53 AM 21.0 °F 8.1 °F 18.0 °F 88% 29.67 in 4.0 mi NW 13.8 mph 20.7 mph N/A   Overcast
9:53 AM 19.9 °F 8.6 °F 17.1 °F 89% 29.69 in 6.0 mi NNW 10.4 mph 20.7 mph N/A   Overcast
10:53 AM 19.0 °F 6.1 °F 16.0 °F 88% 29.71 in 4.0 mi NW 12.7 mph - N/A   Overcast
11:53 AM 18.0 °F 3.6 °F 15.1 °F 88% 29.71 in 5.0 mi NW 15.0 mph - N/A   Overcast
12:53 PM 17.1 °F 1.5 °F 14.0 °F 88% 29.72 in 5.0 mi WNW 17.3 mph - N/A   Overcast
1:53 PM 17.1 °F 2.5 °F 12.9 °F 84% 29.73 in 7.0 mi NW 15.0 mph - N/A   Overcast
2:24 PM 15.8 °F -0.2 °F 12.2 °F 86% 29.66 in 9.0 mi WNW 17.3 mph - N/A   Overcast
2:53 PM 16.0 °F 0.1 °F 12.0 °F 84% 29.75 in 10.0 mi WNW 17.3 mph - N/A   Overcast
3:53 PM 15.1 °F -1.1 °F 12.0 °F 88% 29.78 in 10.0 mi WNW 17.3 mph - N/A   Overcast
4:53 PM 15.1 °F 0.5 °F 10.9 °F 84% 29.81 in 10.0 mi WNW 13.8 mph - N/A   Overcast
5:53 PM 14.0 °F -2.0 °F 10.0 °F 84% 29.85 in 10.0 mi WNW 16.1 mph - N/A   Overcast
6:53 PM 14.0 °F 0.5 °F 10.0 °F 84% 29.88 in 10.0 mi WNW 11.5 mph - N/A   Overcast
7:53 PM 12.9 °F -2.8 °F 10.0 °F 88% 29.91 in 10.0 mi WNW 15.0 mph - N/A   Overcast
8:37 PM 12.2 °F -3.7 °F 10.4 °F 92% 29.83 in 10.0 mi WNW 15.0 mph - N/A   Overcast
8:53 PM 12.9 °F -0.9 °F 10.0 °F 88% 29.92 in 10.0 mi WNW 11.5 mph - N/A   Overcast
9:53 PM 12.9 °F -1.6 °F 9.0 °F 84% 29.93 in 10.0 mi WNW 12.7 mph - N/A   Overcast
10:42 PM 10.4 °F -3.3 °F 6.8 °F 85% 29.86 in 10.0 mi NW 10.4 mph - N/A   Mostly Cloudy
10:53 PM 10.0 °F -2.9 °F 7.0 °F 87% 29.95 in 10.0 mi WNW 9.2 mph - N/A   Overcast
11:25 PM 8.6 °F -5.5 °F 6.8 °F 92% 29.87 in 10.0 mi WNW 10.4 mph - N/A   Mostly Cloudy
11:45 PM 8.6 °F -4.7 °F 5.0 °F 85% 29.87 in 10.0 mi WNW 9.2 mph - N/A   Scattered Clouds
11:53 PM 8.1 °F -4.3 °F 5.0 °F 87% 29.97 in 10.0 mi WNW 8.1 mph - N/A   Mostly Cloudy